Flag for Germany Weather past 2 weeks in Gotha, Thuringia, Germany

Now
83 °F

Passing clouds.


Feels Like: 83 °F
Forecast: 69 / 90 °F
Wind: 3 mph from East

Location: Erfurt-Bindersleben

Current Time: Jul 2, 2015 at 12:25:40 PM

Latest Report: Jul 2, 2015 at 12:00 PM


Visibility: 25 mi

Pressure: 30.16 "Hg

Humidity: 45%

Dew point: 59 °F

Location of GothaLocation

Historic Weather in Gotha — Graph

°F

Gotha temperature yesterday

Maximum temperature yesterday: 81 °F (at 4:00 PM)
Minimum temperature yesterday: 60 °F (at 4:00 AM)
Average temperature yesterday: 72 °F

Past Weeks' High & Low Weather Summary

 TemperatureHumidityPressure
High81 °F (Jul 1, 4:00 PM)99% (Jun 23, 3:00 AM)30.27 "Hg (Jun 23, 3:00 AM)
Low44 °F (Jun 21, 3:00 AM)35% (Jun 17, 3:00 PM)29.65 "Hg (Jun 23, 2:00 AM)
Average60 °F71%30.07 "Hg
* Reported Jun 17 11:00 AM — Jul 2 11:00 AM, Gotha, Weather by CustomWeather, © 2015

Note: Actual official high and low records may vary slightly from our data, if they occured in-between our weather recording intervals... More about our weather records

Advertising

Gotha weather history for previous 24 hours

 ConditionsComfort  
Time TempWeatherWind HumidityBarometerVisibility
11:00 AM
Thu, Jul 2
79 °FWarm.3 mph54%30.17 "HgN/A
10:00 AM73 °FSunny.2 mph60%30.18 "Hg25 mi
9:00 AM70 °FSunny.2 mph63%30.19 "Hg25 mi
8:00 AM68 °FSunny.1 mph69%30.19 "Hg31 mi
7:00 AM64 °FSunny.1 mph72%30.19 "Hg31 mi
6:00 AM61 °FSunny.1 mph74%30.19 "Hg28 mi
5:00 AM63 °FClear.1 mph70%30.18 "Hg28 mi
4:00 AM64 °FClear.2 mph68%30.18 "Hg31 mi
3:00 AM65 °FClear.2 mph66%30.17 "Hg31 mi
2:00 AM67 °FClear.2 mph62%30.18 "Hg37 mi
1:00 AM70 °FClear.2 mph55%30.17 "Hg37 mi
12:00 AM71 °FClear.1 mph54%30.17 "Hg43 mi
11:00 PM
Wed, Jul 1
72 °FClear.2 mph53%30.16 "Hg47 mi
10:00 PM73 °FPassing clouds.2 mph49%30.15 "Hg47 mi
9:00 PM76 °FPassing clouds.3 mph43%30.12 "Hg47 mi
8:00 PM78 °FScattered clouds.5 mph40%30.11 "Hg47 mi
7:00 PM79 °FPassing clouds.5 mph39%30.11 "Hg47 mi
6:00 PM80 °FScattered clouds.6 mph36%30.11 "Hg47 mi
5:00 PM81 °FPassing clouds.5 mph35%30.12 "Hg47 mi
4:00 PM81 °FPassing clouds.6 mph38%30.13 "Hg47 mi
3:00 PM80 °FPassing clouds.5 mph39%30.13 "Hg47 mi
2:00 PM80 °FPassing clouds.5 mph39%30.14 "Hg47 mi
1:00 PM78 °FPassing clouds.5 mph39%30.15 "Hg47 mi
12:00 PM76 °FPassing clouds.3 mph42%30.16 "Hg47 mi
Weather by CustomWeather, © 2015

See weather overviewHow to use our weather pages